Simultaneous Nadir Overpasses (SNOs) Predictions

Prediction of SNOs between NPP and PACE Satellite Orbit:

Table of predicted SNOs for the next 14.0 days since TLE Epoch: 5/18/2024
Index Date (NPP) Time (NPP) Lat,Lon (NPP) SZA (NPP ) Date (PACE) Time (PACE) Lat,Lon (PACE) SZA (PACE ) Distance(km) Time Diff (sec)
1 05/20/2024 06:04:50 -79.95,-129.40 117.99 05/20/2024 06:05:12 -79.95,-129.38 118.00 0.52 22
2 05/20/2024 06:55:29 79.77, 39.66 61.68 05/20/2024 06:54:17 79.77, 39.67 61.71 0.29 72
3 05/22/2024 10:31:12 -79.92, 164.28 118.47 05/22/2024 10:31:24 -79.92, 164.26 118.47 0.36 12
4 05/24/2024 14:57:35 -79.93, 97.59 118.85 05/24/2024 14:57:36 -79.93, 97.63 118.85 0.72 1
5 05/26/2024 19:23:55 -79.86, 31.72 119.35 05/26/2024 19:23:45 -79.87, 31.57 119.32 3.20 10
6 05/28/2024 22:59:40 80.09, 155.52 60.75 05/28/2024 23:00:51 80.08, 155.65 60.70 2.45 71
7 05/28/2024 23:50:18 -79.88, -35.09 119.65 05/28/2024 23:49:55 -79.88, -35.04 119.65 0.99 23
8 05/31/2024 03:26:01 80.06, 89.23 60.38 05/31/2024 03:26:59 80.06, 89.32 60.34 1.70 58



Historial Predications of SNOs between NPP and PACE
